Pagina principale
METAR-TAF:

METAR-TAF

Aeroporti :

Capri, Italia

latitudine: 40-33N, longitudine: 014-12E, altezza: 160 m

Osservazione

Il bollettino è stato emesso 45 minuti fa, alle 22:55 UTC
Vento calmo
Temperature 22°C
Umidità 88%
Pressione 1015 hPa
Visibilità 10 km o più
nessuna nube inferiore a 1500 m e nessun cumulonembo

METAR: LIQC 142255Z 00000KT CAVOK 22/20 Q1015 RMK SKC QUK / QUL / VIS MAR 20 KM VIS MIN 9999

Ora: 01:40 (23:40 UTC)


TAF: mancante

Osservazioni e previsioni meteorologiche di più di 4000 aeroporti (messaggi METAR e TAF).

Le stazioni disponibili sono rappresentate dai dischi gialli e rossi sulla carta.

Puntare il mouse per vedere il nome della stazione.

Clicca sopra per visualizzare le osservazioni e previsioni meteorologiche.

Per cambiare la mappa : fare clic sui pulsanti verdi con una croce nera per ingrandire, il pulsante verde con un trattino per diminuire, o sulla freccia verde per le mappe adiacenti.


METAR-TAF: